This demonstration page uses our WeatherBlox Daily Observations layout. Learn more.

Left ArrowRight Arrow

38.88101, -77.10428

Hourly Observations for December 8, 2015

Temp ( °F °C ) Dew Point ( °F °C ) Humidity (%) Winds ( mph kmh ) Pressure ( in mb ) Visibility ( mi km ) Precip ( " mm )
12:52 am 00:52 Mostly Clear 44 6.7 37 2.8 76 76 N N/A 30.11 1020 10 16 N/A
1:52 am 01:52 Mostly Clear 40 4.4 34 1.1 79 79 N 8 13 30.11 1020 10 16 N/A
2:52 am 02:52 Clear 40 4.4 33 0.6 77 77 N 9 15 30.11 1020 10 16 N/A
3:52 am 03:52 Clear 40 4.4 32 undefined 73 73 NW 6 9 30.10 1019 10 16 N/A
4:52 am 04:52 Clear 42 5.6 31 -0.6 65 65 NW 5 7 30.12 1020 10 16 N/A
5:52 am 05:52 Clear 39 3.9 32 undefined 76 76 N 7 11 30.14 1021 10 16 N/A
6:52 am 06:52 Clear 38 3.3 32 undefined 79 79 NNW 7 11 30.15 1021 10 16 N/A
7:52 am 07:52 Sunny 42 5.6 32 undefined 68 68 N N/A 30.17 1022 10 16 N/A
8:52 am 08:52 Sunny 43 6.1 34 1.1 71 71 ENE 3 6 30.17 1022 10 16 N/A
9:52 am 09:52 Sunny 46 7.8 35 1.7 66 66 NE 8 13 30.19 1022 10 16 N/A
10:52 am 10:52 Sunny 49 9.4 34 1.1 56 56 N N/A 30.18 1022 10 16 N/A
11:52 am 11:52 Mostly Cloudy 50 10 34 1.1 54 54 E 3 6 30.16 1021 10 16 N/A
12:52 pm 12:52 Cloudy 53 11.7 35 1.7 51 51 ENE 5 7 30.12 1020 10 16 N/A
1:52 pm 13:52 Cloudy 55 12.8 37 2.8 51 51 NNW 3 6 30.11 1020 10 16 N/A
2:52 pm 14:52 Mostly Cloudy 55 12.8 36 2.2 49 49 VRB 5 7 30.10 1019 10 16 N/A
3:52 pm 15:52 Mostly Cloudy 54 12.2 36 2.2 51 51 ENE 3 6 30.11 1020 10 16 N/A
4:52 pm 16:52 Mostly Cloudy 51 10.6 37 2.8 59 59 E 3 6 30.12 1020 10 16 N/A
5:52 pm 17:52 Cloudy 50 10 36 2.2 59 59 ESE 6 9 30.14 1021 10 16 N/A
6:52 pm 18:52 Mostly Cloudy 47 8.3 36 2.2 66 66 N N/A 30.14 1021 10 16 N/A
7:52 pm 19:52 Mostly Clear 46 7.8 36 2.2 68 68 N N/A 30.14 1021 10 16 N/A
8:52 pm 20:52 Mostly Cloudy 45 7.2 36 2.2 71 71 N N/A 30.15 1021 10 16 N/A
9:52 pm 21:52 Mostly Cloudy 44 6.7 37 2.8 76 76 SSE 3 6 30.14 1021 10 16 N/A
10:52 pm 22:52 Mostly Cloudy 43 6.1 37 2.8 80 80 SSW 3 6 30.14 1021 10 16 N/A
11:52 pm 23:52 Mostly Cloudy 43 6.1 37 2.8 80 80 N N/A 30.13 1020 9 14 N/A

Powered by AerisWeather